Location: ?????
(31.8092°N, 35.2590°E)
Time: 20:00:38
(UTC+00:00)

USA 229 - Pass Details

Date: 20 June 2021
Orbit: 956 x 1256 km, 63.5° (Epoch: 25 July)

Event Time Altitude Azimuth Distance (km) Brightness Sun altitude
Exits shadow 21:51:20 55° 335° (NNW) 1,187 4.0 -34.7°
Drops below altitude 10° 21:57:01 10° 22° (NNE) 2,840 6.7 -34.6°
Sets 21:59:47 0° 26° (NNE) 3,839 7.5 -34.6°
